Current Version              Previous Version:    01  02  03  04  05  06  07  08  09  10  11  12  13  14  15  16  17  18  19  20  21  22  23  24  25  26  27  28  29  30  
   31  32  33  34  35  36  37  38  39  40  41  42  43  44  45  46  47  48  49  50  51  52  53  54  55  56  57  58  59  60  

[Printable]
049
ASUS44 KLUB 210601
RWRTX
WEST TEXAS WEATHER ROUNDUP
NATIONAL WEATHER SERVICE LUBBOCK TX
100 AM CDT TUE OCT 21 2014

NOTE: "FAIR" INDICATES FEW OR NO CLOUDS BELOW 12,000 FEET WITH NO
SIGNIFICANT WEATHER AND/OR OBSTRUCTIONS TO VISIBILITY.

TXZ004-006>008-010-012-014-016-OKZ002-210700-
TEXAS PANHANDLE/OKLAHOMA PANHANDLE

CITY           SKY/WX    TMP DP  RH WIND       PRES   REMARKS
AMARILLO       CLEAR     57  51  80 S7        30.11F
BORGER         CLEAR     61  50  67 CALM      30.08F
CANADIAN       CLEAR     61  58  89 E3        30.05F
DALHART        CLEAR     56  47  71 N5        30.13F
DUMAS          CLEAR     52  46  80 CALM      30.11S
GUYMON         CLEAR     57  53  86 N3        30.08F
HEREFORD       PTCLDY    56  54  91 MISG      30.13S
PAMPA          CLEAR     56  51  84 S7        30.10S
$$

TXZ026-029-035-045-048-210700-
SOUTHERN PANHANDLE/SOUTH PLAINS/ROLLING PLAINS

CITY           SKY/WX    TMP DP  RH WIND       PRES   REMARKS
CHILDRESS      CLEAR     64  55  72 S8        30.06F
LUBBOCK        PTCLDY    58  52  80 S6        30.10F
SNYDER         PTCLDY    63  53  69 SE8       30.09S
$$

TXZ052-054-060>062-072-078-127-140-154-169-210700-
PERMIAN BASIN/CONCHO VALLEY/BIG COUNTRY/EDWARDS PLATEAU

CITY           SKY/WX    TMP DP  RH WIND       PRES   REMARKS
ABILENE        PTCLDY    63  54  72 S7        30.07S
BIG SPRING     CLEAR     64  52  65 E8        30.10F
JUNCTION       CLEAR     60  54  80 CALM      30.06F
MIDLAND        PTCLDY    64  51  62 SE8       30.08F
ODESSA         PTCLDY    64  51  62 SE8       30.09F
SAN ANGELO     CLEAR     63  52  67 S7        30.06F
SONORA         CLEAR     66  55  68 VRB5      30.11S
WINK           MOCLDY    63  61  93 NE5       30.06F
$$

TXZ055-058-074-075-080-082-210700-
FAR WEST/SOUTHWEST MOUNTAINS/TRANS PECOS

CITY           SKY/WX    TMP DP  RH WIND       PRES   REMARKS
ALPINE         MOCLDY    59  55  86 E3        30.15F
DRYDEN           N/A     66  62  87 NE6       30.03F
EL PASO        MOCLDY    61  55  81 N8        30.07F
FORT STOCKTON  MOCLDY    63  59  87 SE7       30.07S
MARFA          MOCLDY    55  54  94 N5        30.14S
PRESIDIO       FAIR      67  59  76 NE8       30.02S
$$

TXZ014-016-019-021>030-083-210700
TEXAS TECH WEST TEXAS MESONET/TEXAS PANHANDLE/NORTHERN SOUTH PLAINS

CITY           SKY/WX    TMP DP  RH WIND       PRES   REMARKS
ABERNATHY 5ENE   N/A     53  51  90 S5        30.12F
AMARILLO 9NNE    N/A     55  50  86 S3        30.10F
AMARILLO 7SSE    N/A     55  50  85 S3        30.12F
AMHERST 1NE      N/A     57  52  84 S6        30.13F
BOOTLEG 11WNW    N/A     54  50  88 SW8       30.16F
CANADIAN 6E      N/A     61  58  90 E9        30.05F
CAPROCK CYN SP   N/A     64  54  69 SW8       30.09S
CHILDRESS 2NNE   N/A     64  55  73 S8        30.05F
CLARENDON 2WSW   N/A     58  53  83 S6        30.09S
CLAUDE 12SW      N/A     63  53  69 S5        30.11F
DIMMITT 2NE      N/A     60  52  74 S9        30.13S
FLOYDADA 2NNE    N/A     59  53  80 S7        30.11S
FRIONA 2NE       N/A     51  48  90 SW2       30.15S
GOODLETT 3W      N/A     65  54  68 S3        30.04S
HART 3N          N/A     51  48  89 SW3       30.13S
HEREFORD 2NW     N/A     56  49  78 SW5       30.13S
MCLEAN 1E        N/A     61  53  75 S8        30.07S
MEMPHIS 1NE      N/A     58  51  77 NW2       30.06F
MULESHOE 2SSW    N/A     51  49  92 SW2       30.14S
OLTON 6S         N/A     54  50  87 SW6       30.12S
PALO DURO SP     N/A     59  52  75 SW2       30.13F
PAMPA 2E         N/A     56  52  87 SE8       30.09F
PLAINVIEW 1S     N/A     55  52  89 CALM      30.11F
SILVERTON 7ESE   N/A     57  52  82 S8        30.11S
TULIA 2ENE       N/A     56  52  84 SW8       30.12S
TURKEY 2WSW      N/A     60  55  81 SW7       30.07S
UMBARGER 3NNE    N/A     54  50  85 SW6       30.13S
$$

TXZ033>036-039>041-045>048-210700
TEXAS TECH WEST TEXAS MESONET/SOUTH PLAINS

CITY           SKY/WX    TMP DP  RH WIND       PRES   REMARKS
AIKEN 3WSW       N/A     54  51  90 S5        30.12F
ANDREWS 2NE      N/A     60  51  71 SE3       30.10F
ANTON 6SSW       N/A     54  51  89 S3        30.12S
BROWNFIELD 2S    N/A     56  50  79 SE3       30.11F
DENVR CTY 7WNW   N/A     60  52  76 SE5       30.12S
GAIL 2ESE        N/A     58  51  79 SE1       30.08F
LAMESA 2SE       N/A     58  50  75 SE5       30.11S
LEVELLAND 4S     N/A     53  49  87 SE1       30.12F
LUBBOCK 3WNW     N/A     59  51  75 S2        30.11F
MORTON 1ENE      N/A     56  52  85 SW2       30.13F
ODONNELL 1N      N/A     59  50  72 S5        30.11S
PLAINS 3N        N/A     58  52  79 SE7       30.12F
RALLS 1SE        N/A     56  52  85 S6        30.11F
REESE CENTER     N/A     57  51  82 S6        30.11F
SEMINOLE 2NNE    N/A     57  51  78 SE2       30.11S
SLATON 2NE       N/A     56  51  82 S8        30.10F
SNYDER 3E        N/A     61  53  75 SE5       30.08F
SUNDOWN 8SW      N/A     56  51  82 SE6       30.12S
TAHOKA 3NNE      N/A     58  51  78 S5        30.10F
WOLFFORTH 6SSW   N/A     57  52  84 SE5       30.11F
$$

TXZ031-032-036>038-042>044-210700-
TEXAS TECH WEST TEXAS MESONET/ROLLING PLAINS

CITY           SKY/WX    TMP DP  RH WIND       PRES   REMARKS
ASPERMONT 3NE    N/A     61  54  76 S5        30.05F
FLUVANNA 3WNW    N/A     59  52  77 SE7       30.09S
GRAHAM 5SSW      N/A     64  51  63 S5        30.10S
GUTHRIE 10WSW    N/A     62  54  75 S5        30.06S
HASKELL 1NW      N/A     64  53  67 S3        30.04F
JAYTON 1SSE      N/A     62  54  75 S5        30.06F
KNOX CITY 3NW    N/A     62  55  77 S5        30.05S
LK A HENRY 1NW   N/A     63  53  70 SW5       30.07F
NORTHFIELD 1S    N/A     63  56  77 SW3       30.06S
ODELL 4ENE       N/A     66  57  72 S9        30.05S
PADUCAH 10SW     N/A     62  55  77 S8        30.06S
POST 1NE         N/A     63  52  67 SW3       30.09F
RRING SPRGS 3N   N/A     59  55  85 S6        30.08S
SEYMOUR 3NW      N/A     65  56  71 SE6       30.04F
SPUR 1W          N/A     54  51  87 NW1       30.07S
WEINERT 2NNE     N/A     63  55  77 S5        30.05F
WHITE RVR 6NE    N/A     63  54  72 S3        30.09S
$$

TXZ052-054-060>062-072-078-127-140-154-169-210700-
TEXAS TECH WEST TEXAS MESONET/PERMIAN BASIN/
CONCHO VALLEY/BIG COUNTRY/EDWARDS PLATEAU

CITY           SKY/WX    TMP DP  RH WIND       PRES   REMARKS
COYANOSA 2N      N/A     62  60  93 NE5       30.07S
JUNCTION 1SSW    N/A     58  54  88 CALM      30.07S
MERTZON 3NNE     N/A     56  48  74 CALM      30.08F
SAN ANGELO 7NW   N/A     61  51  71 NE2       30.07S
STRLNG CT 4WSW   N/A     58  51  77 NE2       30.09S
ST LAWRNCE 5SW   N/A     60  51  70 E6        30.08F
SWEETWATR 11SW   N/A     60  53  77 SE8       30.10S
WALL 1E          N/A     60  52  75 SE5       30.07S
$$

TXZ055-058-074-075-080-082-210700-
TEXAS TECH WEST TEXAS MESONET/FAR WEST/SOUTHWEST MOUNTAINS/TRANS PECOS

CITY           SKY/WX    TMP DP  RH WIND       PRES   REMARKS
PRSMN GAP BBNP   N/A     65  60  83 NE14      30.03S
GUADLPE MTN NP   N/A     55  51  88 N6        30.18S
$$